TimeAKST,TemperatureF,Dew PointF,Humidity,Sea Level PressureIn,VisibilityMPH,Wind Direction,Wind SpeedMPH,Gust SpeedMPH,PrecipitationIn,Events,Conditions,WindDirDegrees,DateUTC
12:53 AM,-18.0,-25.1,70,29.92,9.0,SW,15.0,-,N/A,Snow,Light Snow,230,2013-01-08 09:53:00
1:53 AM,-17.0,-23.1,74,29.93,9.0,SW,13.8,-,N/A,Snow,Light Snow,230,2013-01-08 10:53:00
2:53 AM,-17.0,-23.1,74,29.95,9.0,SW,16.1,-,N/A,Snow,Light Snow,220,2013-01-08 11:53:00
3:53 AM,-17.0,-23.1,74,29.95,8.0,SW,16.1,-,N/A,Snow,Light Snow,220,2013-01-08 12:53:00
4:25 AM,-16.6,-23.8,70,29.95,5.0,SW,16.1,-,N/A,,Overcast,230,2013-01-08 13:25:00
4:53 AM,-16.1,-22.0,74,29.96,7.0,SW,16.1,-,N/A,,Overcast,230,2013-01-08 13:53:00
5:53 AM,-15.0,-20.9,75,29.97,5.0,SW,13.8,-,N/A,Snow,Light Snow,230,2013-01-08 14:53:00
6:53 AM,-14.1,-20.0,75,29.99,5.0,SW,16.1,-,N/A,Snow,Light Snow,230,2013-01-08 15:53:00
7:53 AM,-14.1,-20.0,75,29.99,5.0,SW,12.7,-,N/A,Snow,Light Snow,230,2013-01-08 16:53:00
8:42 AM,-14.8,-20.2,77,29.99,10.0,SW,13.8,-,N/A,,Scattered Clouds,230,2013-01-08 17:42:00
8:53 AM,-15.0,-20.9,75,30.01,10.0,SW,13.8,-,N/A,,Scattered Clouds,230,2013-01-08 17:53:00
9:53 AM,-16.1,-22.0,74,30.01,10.0,SW,15.0,-,N/A,,Overcast,230,2013-01-08 18:53:00
10:53 AM,-16.1,-22.0,74,30.03,10.0,SW,15.0,-,N/A,,Mostly Cloudy,230,2013-01-08 19:53:00
11:53 AM,-16.1,-22.0,74,30.04,10.0,WSW,16.1,-,N/A,,Mostly Cloudy,240,2013-01-08 20:53:00
12:53 PM,-15.0,-20.9,75,30.05,10.0,WSW,15.0,-,N/A,,Mostly Cloudy,240,2013-01-08 21:53:00
1:53 PM,-13.0,-18.9,75,30.07,10.0,WSW,16.1,-,N/A,,Overcast,240,2013-01-08 22:53:00
2:20 PM,-11.2,-18.4,70,30.06,10.0,WSW,16.1,-,N/A,,Overcast,240,2013-01-08 23:20:00
2:53 PM,-11.9,-18.0,74,30.07,10.0,WSW,15.0,-,N/A,,Overcast,240,2013-01-08 23:53:00
3:53 PM,-11.0,-17.0,75,30.08,10.0,SW,15.0,-,N/A,,Overcast,230,2013-01-09 00:53:00
4:53 PM,-11.0,-16.1,78,30.08,8.0,WSW,16.1,-,N/A,,Overcast,240,2013-01-09 01:53:00
5:53 PM,-9.9,-16.1,74,30.09,5.0,WSW,12.7,-,N/A,Snow,Light Snow,240,2013-01-09 02:53:00
6:53 PM,-9.0,-14.1,79,30.11,10.0,WSW,15.0,-,N/A,,Overcast,240,2013-01-09 03:53:00
7:53 PM,-8.0,-14.1,75,30.11,10.0,SW,13.8,-,N/A,,Overcast,230,2013-01-09 04:53:00
8:53 PM,-8.0,-13.0,79,30.12,4.0,WSW,15.0,-,N/A,Snow,Light Snow,240,2013-01-09 05:53:00
9:12 PM,-7.6,-13.0,77,30.12,2.5,WSW,16.1,-,N/A,Snow,Light Snow,240,2013-01-09 06:12:00
9:53 PM,-8.0,-13.0,79,30.13,2.5,WSW,15.0,-,N/A,Snow,Light Snow,240,2013-01-09 06:53:00
10:53 PM,-7.1,-13.0,75,30.14,3.0,WSW,15.0,-,N/A,Snow,Light Snow,240,2013-01-09 07:53:00
11:53 PM,-8.0,-14.1,75,30.16,8.0,WSW,13.8,-,N/A,,Overcast,240,2013-01-09 08:53:00